Weather History for El Centro, CA

Change the Weather History Date:

Monday, December 12, 2011

  Actual Average Record
Temperature  
Mean Temperature 55 °F -  
Max Temperature 64 °F 67 °F 86 °F (2010)
Min Temperature 46 °F 43 °F 36 °F (2007)
Degree Days  
Heating Degree Days 10    
Growing Degree Days 5 (Base 50)    
Moisture  
Dew Point 41 °F    
Average Humidity 61    
Maximum Humidity 78    
Minimum Humidity 28    
Precipitation  
Precipitation 0.01 in - - ()
Sea Level Pressure  
Sea Level Pressure 29.85 in    
Wind  
Wind Speed 3 mph (ESE)    
Max Wind Speed 6 mph    
Max Gust Speed -    
Visibility 10 miles    
Events Rain    
Averages and records for this station are not official NWS values.
T = Trace of Precipitation, MM = Missing Value Source: NWS Daily Summary

Daily Weather History Graph

Daily Weather History Graph

Search for Another Location

Airport:

Trip Planner

Search our weather history database for the weather conditions in past years. The results will help you decide how hot, cold, wet, or windy it might be!

Date:

Astronomy

Dec. 12, 2011 Rise Set
Actual Time 6:35 AM PST 4:37 PM PST
Civil Twilight 6:08 AM PST 5:04 PM PST
Nautical Twilight 5:37 AM PST 5:35 PM PST
Astronomical Twilight 5:07 AM PST 6:05 PM PST
Moon 6:49 PM PST (12/12) 8:12 AM PST (12/12)
Length of Visible Light 10h 55m
Length of Day
10h 01m
Waning Gibbous, 95% of the Moon is Illuminated
Dec 12
Waning Gibbous
Dec 17
Last Quarter
Dec 24
New
Dec 31
First Quarter
Jan 8
Full

Hourly Weather History & Observations

Time (PST) Temp. Dew Point Humidity Pressure Visibility Wind Dir Wind Speed Gust Speed Precip Events Conditions
12:56 AM - - N/A% 29.85 in - North - - N/A   Unknown
1:56 AM - - N/A% 29.84 in - North - - N/A   Unknown
2:56 AM - - N/A% 29.84 in - North - - N/A   Unknown
3:56 AM - - N/A% 29.83 in - North - - N/A   Unknown
4:12 AM - - N/A% - - North - - N/A   Unknown
4:56 AM - - N/A% 29.82 in - North - - N/A   Unknown
5:56 AM 46.0 °F 14.4 °F 28% 29.82 in 10.0 mi Calm Calm - N/A   Partly Cloudy
6:56 AM 49.3 °F 37.4 °F 64% 29.83 in 10.0 mi SSE 4.6 mph - N/A   Partly Cloudy
7:56 AM 52.5 °F 40.1 °F 63% 29.84 in 10.0 mi SE 5.8 mph - N/A   Partly Cloudy
8:56 AM 57.4 °F 40.1 °F 53% 29.85 in 10.0 mi ESE 5.8 mph - N/A   Scattered Clouds
9:55 AM - - N/A% - - North - - N/A   Unknown
9:56 AM 56.8 °F 41.9 °F 57% 29.85 in 10.0 mi East 4.6 mph - N/A   Mostly Cloudy
10:30 AM 57.2 °F 42.8 °F 59% 29.81 in 10.0 mi East 4.6 mph - 0.00 in Rain Light Rain
10:56 AM 55.6 °F 45.0 °F 67% 29.86 in 10.0 mi SE 5.8 mph - 0.00 in Rain Light Rain
11:56 AM 54.5 °F 47.7 °F 78% 29.84 in 10.0 mi SE 4.6 mph - 0.01 in Rain Light Rain
12:56 PM 55.4 °F 47.3 °F 74% 29.83 in 10.0 mi Calm Calm - 0.00 in   Mostly Cloudy
1:56 PM 56.8 °F 43.7 °F 61% 29.82 in 10.0 mi Calm Calm - N/A   Mostly Cloudy
2:56 PM 58.3 °F 40.5 °F 52% 29.81 in 10.0 mi NNE 3.5 mph - N/A   Partly Cloudy
3:56 PM 64.8 °F 45.1 °F 49% 29.82 in 10.0 mi Calm Calm - N/A   Scattered Clouds
4:56 PM 55.4 °F 44.6 °F 67% 29.84 in 10.0 mi North 3.5 mph - N/A   Scattered Clouds
5:56 PM 55.8 °F 43.7 °F 64% 29.86 in 10.0 mi Variable 3.5 mph - N/A   Scattered Clouds
6:56 PM 54.3 °F 42.4 °F 64% 29.87 in 10.0 mi Variable 3.5 mph - N/A   Scattered Clouds
7:56 PM 56.7 °F 44.6 °F 64% 29.89 in 10.0 mi Variable 3.5 mph - N/A   Scattered Clouds
8:56 PM 52.2 °F 38.3 °F 59% 29.90 in 10.0 mi Calm Calm - N/A   Scattered Clouds
9:56 PM 48.9 °F 39.9 °F 71% 29.91 in 10.0 mi Calm Calm - N/A   Mostly Cloudy
10:56 PM 49.3 °F 41.4 °F 74% 29.92 in 10.0 mi Calm Calm - N/A   Mostly Cloudy
11:56 PM - - N/A% 29.92 in - North - - N/A   Unknown